Date,TemperatureHighF,TemperatureAvgF,TemperatureLowF,DewpointHighF,DewpointAvgF,DewpointLowF,HumidityHigh,HumidityAvg,HumidityLow,PressureMaxIn,PressureMinIn,WindSpeedMaxMPH,WindSpeedAvgMPH,GustSpeedMaxMPH,PrecipitationSumIn
2013-2-1,40.1,25.4,12.0,16.8,7.5,-1.9,57,47,39,30.44,30.09,13,3,13,0.00
2013-2-2,57.6,38.9,22.8,32.8,21.9,10.9,64,51,38,30.15,29.91,17,4,17,0.00
2013-2-3,57.7,46.5,39.2,29.8,25.1,19.4,58,44,33,30.12,29.88,20,5,20,0.00
2013-2-4,59.4,47.1,38.3,46.6,34.8,19.5,91,65,39,29.88,29.65,9,2,9,0.25
2013-2-5,69.1,48.1,30.7,44.9,34.5,26.6,95,64,34,29.97,29.77,11,2,11,0.00
2013-2-6,59.7,47.4,35.2,35.9,30.4,23.5,66,52,39,30.09,29.94,14,3,14,0.00
2013-2-7,65.5,51.4,41.4,53.5,44.8,34.5,96,79,58,29.97,29.74,12,3,12,0.33
2013-2-8,58.8,43.5,35.4,43.5,32.9,26.3,89,68,43,30.18,29.97,18,5,18,0.00
2013-2-9,40.5,36.0,32.0,36.2,30.3,26.4,92,80,69,30.24,29.85,12,4,12,0.00
2013-2-10,68.9,52.2,38.3,58.7,39.3,22.4,98,68,33,29.88,29.44,29,5,29,0.58
2013-2-11,59.0,44.9,35.4,31.6,24.0,18.9,53,44,35,30.09,29.88,23,5,23,0.00
2013-2-12,48.9,39.7,30.9,31.6,25.3,18.6,81,57,43,30.06,29.74,13,3,13,0.08
2013-2-13,55.9,42.2,34.3,38.3,31.9,26.5,92,69,41,29.88,29.71,14,4,14,0.17
2013-2-14,61.5,47.4,34.9,35.5,30.0,26.6,73,53,37,30.03,29.83,13,3,13,0.00
2013-2-15,48.7,39.8,28.9,27.3,20.3,9.2,56,46,36,30.15,30.03,16,6,16,0.00
2013-2-16,41.7,33.0,25.7,18.7,13.9,8.7,59,45,39,30.21,30.03,15,3,15,0.00
2013-2-17,65.3,46.3,32.5,33.0,23.0,13.7,52,40,29,30.06,29.80,13,4,13,0.00
2013-2-18,54.3,49.9,37.6,50.9,38.9,26.1,90,67,47,30.00,29.56,27,7,27,0.25
2013-2-19,49.5,37.2,29.3,26.5,18.1,9.5,66,47,33,30.18,30.00,24,6,24,0.00
2013-2-20,37.0,31.0,27.1,15.5,10.3,7.5,43,41,40,30.24,30.00,13,4,13,0.00
2013-2-21,32.2,30.2,27.7,30.7,23.5,10.2,95,77,42,30.03,29.53,22,3,22,0.04
2013-2-22,40.3,32.6,25.7,32.6,24.9,18.9,98,74,53,29.94,29.71,11,1,11,0.00
2013-2-23,48.4,33.3,21.6,26.6,20.4,16.1,81,60,42,30.00,29.74,11,2,11,0.04
2013-2-24,59.9,41.6,26.8,36.0,26.5,17.4,79,57,37,29.91,29.68,13,3,13,0.04
2013-2-25,56.3,42.5,36.3,36.2,30.0,23.5,88,63,39,29.80,29.24,27,9,27,1.16
2013-2-26,39.2,36.4,34.0,37.1,32.8,29.1,96,87,77,29.71,29.20,23,8,23,0.25
2013-2-27,42.8,37.0,34.9,31.3,26.9,23.2,77,67,53,29.88,29.68,24,9,24,0.00
2013-2-28,42.6,34.9,31.1,27.1,23.4,20.6,73,63,53,30.03,29.88,17,8,17,0.00